Simultaneous Nadir Overpasses (SNOs) Predictions

Prediction of SNOs near US between AQUA and NPP Satellite Orbit:

Table of predicted SNOs near US for the next 10.0 days since TLE Epoch: 1/17/2020
Index Date (AQUA) Time (AQUA) AQUA Lat,Lon Date (NPP) Time (NPP) NPP Lat,Lon Distance(km) Time Diff (sec)
1 01/20/2020 06:30:37 45.04, -65.50 01/20/2020 06:30:15 45.40, -67.47 159.50 22
2 01/20/2020 08:08:08 49.92, -88.32 01/20/2020 08:10:18 50.40, -90.75 181.57 130
3 01/20/2020 09:47:01 49.92,-113.04 01/20/2020 09:51:46 50.51,-116.08 225.97 285
4 01/22/2020 19:06:18 49.97, -92.54 01/22/2020 19:00:32 49.65, -94.30 131.12 346
5 01/22/2020 20:45:11 49.96,-117.26 01/22/2020 20:42:00 49.54,-119.63 176.39 191




NCC Satellite Simultaneous Nadir Overpasses (SNOs) Prediction Service
